Regional Weather Roundup
Issued by NWS

Home | Current Version | Previous Version | Graphics & Text | Print | Product List | Glossary On
Versions: 1 2 3 4 5 6 7 8 9 10 11 12 13 14 15 16 17 18 19 20 21 22 23 24 25 26 27 28 29 30 31 32 33 34 35 36 37 38 39 40 41 42 43 44 45 46 47 48 49 50
000
ASUS43 KMPX 301310
RWRMN
WEATHER ROUNDUP FOR MINNESOTA
NATIONAL WEATHER SERVICE TWIN CITIES/CHANHASSEN MN
800 AM CDT THU JUL 30 2015


NOTE: "FAIR" INDICATES FEW OR NO CLOUDS BELOW 12,000 FEET WITH NO
SIGNIFICANT WEATHER AND/OR OBSTRUCTIONS TO VISIBILITY. N/A MEANS
CURRENT SKY AND/OR WEATHER CONDITIONS ARE NOT AVAILABLE.

MNZ060>063-068>070-301400-
   Twin Cities Metro

CITY           SKY/WX    TMP DP  RH WIND       PRES   REMARKS
TWIN CITIES    SUNNY     69  55  60 W7        30.04S
ST PAUL        SUNNY     68  57  68 W7        30.04S
CRYSTAL        SUNNY     71  54  54 W12G20    30.02R
BLAINE         SUNNY     70  55  60 W9        30.03R
LAKEVILLE      SUNNY     66  55  68 W6        30.06S
EDEN PRAIRIE   SUNNY     69  55  60 W7        30.04S
SOUTH ST PAUL  SUNNY     67  55  64 W8        30.03S
LAKE ELMO      FAIR      68  59  73 W8        30.04S
$$
MNZ001>005-007-008-013>017-022>024-027-028-301400-
   Northwest Minnesota

CITY           SKY/WX    TMP DP  RH WIND       PRES   REMARKS
BEMIDJI        SUNNY     63  57  79 W10G16    29.99R
HALLOCK        PTSUNNY   63  59  88 W6        29.96R
ROSEAU         PTSUNNY   63  57  82 W5        29.93S
WARROAD        PTSUNNY   61  55  82 NW3       29.94R
THIEF RVR FALL PTSUNNY   63  57  82 W8        29.99R
CROOKSTON      MOSUNNY   63  57  82 W7        30.00R
FOSSTON        MOSUNNY   57  55  94 SW3       30.01R
DETROIT LAKES  SUNNY     64  55  72 W12       30.04S
MOORHEAD       SUNNY     64  55  72 W7        30.04R
PARK RAPIDS    SUNNY     65  57  75 W10       30.02R
MAHNOMEN       FAIR      62  56  82 W6        30.02R
$$
MNZ006-009>011-018-025>026-301400-
   North Central Minnesota

CITY           SKY/WX    TMP DP  RH WIND       PRES   REMARKS
BAUDETTE       CLOUDY    60  56  86 W5        29.92S
FLAG ISLAND    MOSUNNY   63  55  77 W8        29.90S
INTL FALLS     MOSUNNY   62  57  83 W7        29.92R
WASKISH        PTSUNNY   64  61  88 SW9       29.96R
BIG FORK       SUNNY     63  57  82 SW5       29.97R
LONGVILLE      SUNNY     66  59  77 W6        29.99R
GRAND RAPIDS   SUNNY     64  55  72 W8        29.98R
CRANE LAKE     SUNNY     61  55  82 W3        29.93R
ORR            MOSUNNY   63  54  72 W8        29.92R
COOK           MOSUNNY   64  55  72 W10       29.95R
WALKER         FAIR      64  57  77 W10       29.99S
$$
MNZ012-019>021-037-301400-
   Northeast Minnesota

CITY           SKY/WX    TMP DP  RH WIND       PRES   REMARKS
DULUTH         SUNNY     68  57  68 W12       29.94S
ELY            SUNNY     63  54  72 NW12G21   29.92R
HIBBING        SUNNY     66  57  72 W8        29.95R
EVELETH        SUNNY     64  55  72 W9        29.95S
DULUTH HARBOR  SUNNY     68  61  77 SW10      29.94R
TWO HARBORS    SUNNY     70  61  73 W10G17    29.91R
SILVER BAY     SUNNY     68  55  64 W8        29.89R
GRAND MARAIS     N/A     68  53  58 W8        29.83R
G MARAIS ARPRT   N/A     63  48  59 W10G25    29.86R
$$
MNZ029>031-032-039>041-046>048-054>057-064-301400-
   West Central Minnesota

CITY           SKY/WX    TMP DP  RH WIND       PRES   REMARKS
FERGUS FALLS   SUNNY     61  55  82 W6        30.06S
WHEATON        SUNNY     64  55  72 W5        30.09R
MORRIS         SUNNY     66  57  72 W8        30.07R
ALEXANDRIA     SUNNY     65  55  70 W13       30.08R
ELBOW LAKE     FAIR      60  55  83 W8        30.07R
WADENA         SUNNY     63  55  77 W6        30.04R
GLENWOOD       SUNNY     64  55  72 W12       30.08R
APPLETON       SUNNY     64  57  77 W7        30.08S
BENSON         SUNNY     64  55  72 NW5       30.08R
ORTONVILLE     SUNNY     68  54  60 W7        30.08S
MADISON        SUNNY     66  57  72 W6        30.09S
WILLMAR        FAIR      63  57  82 W7        30.09S
$$
MNZ033>034-036-042>043-049>051-058-059-301400-
   Central Minnesota

CITY           SKY/WX    TMP DP  RH WIND       PRES   REMARKS
ST CLOUD       SUNNY     68  55  63 W9        30.03S
SAUK CENTRE    FAIR      63  56  77 W8        30.06S
PAYNESVILLE    SUNNY     62  55  78 SW9       30.07S
AITKIN         SUNNY     68  57  68 SW3       29.98R
PINE RIVER     SUNNY     64  57  77 W5        30.04R
BRAINERD       SUNNY     67  56  67 W10       30.01R
STAPLES        SUNNY     64  55  72 W7        30.03R
LONG PRAIRIE   FAIR      63  54  72 W10       30.05S
LITTLE FALLS   SUNNY     64  54  68 W8        30.03R
LITCHFIELD     SUNNY     68  57  68 W9        30.07S
BUFFALO        SUNNY     66  55  65 W6        30.05F
MAPLE LAKE     SUNNY     66  57  72 W7        30.05S
$$
MNZ037-044-045-052-053-301400-
   East Central Minnesota

CITY           SKY/WX    TMP DP  RH WIND       PRES   REMARKS
PRINCETON      SUNNY     66  57  72 W8        30.02S
MORA           SUNNY     64  55  72 W6        30.02S
CAMBRIDGE      MOSUNNY   70  55  60 W6        30.00S
RUSH CITY      MOSUNNY   67  57  70 W8        30.01S
MOOSE LAKE     SUNNY     64  57  77 W6        29.96S
HINCKLEY       FAIR      66  59  77 W8        29.99S
CLOQUET        SUNNY     66  55  68 W10       29.96S
MCGREGOR       SUNNY     64  57  77 W6        29.99R
$$
MNZ071>073-080-081-089-090-097-098-301400-
   Southwest Minnesota

CITY           SKY/WX    TMP DP  RH WIND       PRES   REMARKS
MONTEVIDEO     SUNNY     68  59  73 NW5       30.11S
GRANITE FALLS  SUNNY     64  57  79 W8        30.11R
CANBY          SUNNY     69  55  61 W9        30.12R
MARSHALL       SUNNY     68  54  60 W8        30.11S
REDWOOD FALLS  SUNNY     70  54  56 W10       30.08S
OLIVIA         SUNNY     63  54  72 W5        30.08R
PIPESTONE      SUNNY     66  57  72 CALM      30.14R
WINDOM         SUNNY     64  57  77 CALM      30.12S
WORTHINGTON    SUNNY     66  55  68 W7        30.13S
JACKSON        SUNNY     68  57  68 SW5       30.12S
TRACY          SUNNY     66  55  68 W8        30.12S
SLAYTON        SUNNY     71  54  53 CALM      30.14R
$$
MNZ065>067-074>077-082>085-091>093-301400-
   South Central Minnesota

CITY           SKY/WX    TMP DP  RH WIND       PRES   REMARKS
MANKATO        SUNNY     66  54  63 W8        30.08S
NEW ULM        SUNNY     64  57  77 W3        30.08S
ST JAMES       SUNNY     68  59  73 SW6       30.10S
FAIRMONT       SUNNY     66  54  63 W7        30.10S
GLENCOE        SUNNY     65  57  76 W5        30.07R
FARIBAULT      SUNNY     66  59  77 SW5       30.07F
OWATONNA       SUNNY     64  57  77 W5        30.09R
WASECA         SUNNY     61  57  88 SW3       30.10S
ALBERT LEA     SUNNY     66  57  72 W3        30.09F
$$
MNZ078>079-086>088-094>096-301400-
   Southeast Minnesota

CITY           SKY/WX    TMP DP  RH WIND       PRES   REMARKS
ROCHESTER      SUNNY     65  57  75 W9        30.10R
RED WING       SUNNY     70  57  64 W7        30.03S
STANTON        SUNNY     67  56  68 W6        30.04F
DODGE CENTER   MOSUNNY   63  57  82 W8        30.08S
AUSTIN         SUNNY     70  55  60 W7        30.09S
PRESTON        SUNNY     65  56  71 W10       30.09S
$$
ABBREVIATIONS USED IN REMARKS
   TC - TEMPERATURES IN CELSIUS
  WCI - WIND CHILL INDEX
   HX - HEAT INDEX
  VSB - VISIBILITY
$$


USA.gov is the U.S. government's official web portal to all federal, state and local government web resources and services.